Redding, CA

6:54 PM PST on December 11, 2017 (GMT -0800)
Redding Municipal

Weather History for KRDD - October, 2013

Change the Weather History Date:

Friday, October 4, 2013

  Actual Average Record
Temperature  
Mean Temperature 69 °F -  
Max Temperature 80 °F 84 °F 102 °F (1987)
Min Temperature 58 °F 53 °F 41 °F (1989)
Degree Days  
Heating Degree Days 0    
Cooling Degree Days 4    
Growing Degree Days 18 (Base 50)    
Moisture  
Dew Point 25 °F    
Average Humidity 21    
Maximum Humidity 30    
Minimum Humidity 12    
Precipitation  
Precipitation 0.00 in 0.03 in 1.09 in (2011)
Month to date precipitation 0.00 0.12  
Year to date precipitation 10.69 21.89  
Since 1 July precipitation 1.39  
Sea Level Pressure  
Sea Level Pressure 30.19 in    
Wind  
Wind Speed 16 mph (North)    
Max Wind Speed 30 mph    
Max Gust Speed 37 mph    
Visibility 10 miles    
Events      
T = Trace of Precipitation, MM = Missing Value Source: NWS Daily Summary

Daily Weather History Graph

Daily Weather History Graph

Search for Another Location

Airport or City:

Trip Planner

Search our weather history database for the weather conditions in past years. The results will help you decide how hot, cold, wet, or windy it might be!

Date:

Astronomy

Oct. 04, 2013 Rise Set
Actual Time 7:09 AM PDT 6:45 PM PDT
Civil Twilight 6:41 AM PDT 7:13 PM PDT
Nautical Twilight 6:10 AM PDT 7:44 PM PDT
Astronomical Twilight 5:38 AM PDT 8:16 PM PDT
Moon 6:50 AM PDT (10/4) 6:31 PM PDT (10/4)
Length of Visible Light 12h 31m
Length of Day
11h 36m
Waning Crescent, 0% of the Moon is Illuminated
Oct 4
Waning Crescent
Oct 4
New
Oct 11
First Quarter
Oct 18
Full
Oct 26
Last Quarter

Hourly Weather History & Observations

Time (PDT) Temp. Dew Point Humidity Pressure Visibility Wind Dir Wind Speed Gust Speed Precip Events Conditions
12:53 AM 62.1 °F 27.0 °F 26% 30.20 in 10.0 mi North 15.0 mph - N/A   Clear
1:53 AM 61.0 °F 28.0 °F 29% 30.21 in 10.0 mi North 16.1 mph - N/A   Clear
2:53 AM 61.0 °F 27.0 °F 27% 30.22 in 10.0 mi North 16.1 mph 24.2 mph N/A   Clear
3:53 AM 60.1 °F 27.0 °F 28% 30.21 in 10.0 mi North 17.3 mph - N/A   Clear
4:53 AM 59.0 °F 27.0 °F 29% 30.21 in 10.0 mi North 16.1 mph 25.3 mph N/A   Clear
5:53 AM 59.0 °F 27.0 °F 29% 30.22 in 10.0 mi North 15.0 mph - N/A   Clear
6:53 AM 57.9 °F 27.0 °F 31% 30.23 in 10.0 mi North 13.8 mph 23.0 mph N/A   Clear
7:53 AM 59.0 °F 27.0 °F 29% 30.23 in 10.0 mi North 25.3 mph 35.7 mph N/A   Clear
8:53 AM 61.0 °F 27.0 °F 27% 30.24 in 10.0 mi North 23.0 mph 36.8 mph N/A   Clear
9:53 AM 64.9 °F 27.0 °F 24% 30.25 in 10.0 mi North 20.7 mph 28.8 mph N/A   Clear
10:53 AM 68.0 °F 27.0 °F 21% 30.24 in 10.0 mi North 25.3 mph 34.5 mph N/A   Clear
11:53 AM 72.0 °F 26.1 °F 18% 30.23 in 10.0 mi NNE 23.0 mph 35.7 mph N/A   Clear
12:53 PM 73.0 °F 26.1 °F 17% 30.21 in 10.0 mi North 17.3 mph 27.6 mph N/A   Clear
1:53 PM 75.9 °F 25.0 °F 15% 30.18 in 10.0 mi North 19.6 mph 29.9 mph N/A   Clear
2:53 PM 78.1 °F 24.1 °F 14% 30.15 in 10.0 mi North 19.6 mph 24.2 mph N/A   Clear
3:53 PM 79.0 °F 23.0 °F 13% 30.13 in 10.0 mi NNW 13.8 mph 25.3 mph N/A   Clear
4:53 PM 79.0 °F 23.0 °F 13% 30.12 in 10.0 mi North 12.7 mph 20.7 mph N/A   Clear
5:53 PM 78.1 °F 24.1 °F 14% 30.12 in 10.0 mi North 11.5 mph - N/A   Clear
6:53 PM 73.9 °F 24.1 °F 16% 30.13 in 10.0 mi NNW 8.1 mph - N/A   Clear
7:53 PM 71.1 °F 24.1 °F 17% 30.15 in 10.0 mi North 8.1 mph - N/A   Clear
8:53 PM 69.1 °F 24.1 °F 18% 30.17 in 10.0 mi North 6.9 mph - N/A   Clear
9:53 PM 62.1 °F 24.1 °F 23% 30.18 in 10.0 mi North 5.8 mph - N/A   Clear
10:53 PM 66.9 °F 21.9 °F 18% 30.18 in 10.0 mi North 9.2 mph - N/A   Clear
11:53 PM 66.0 °F 23.0 °F 20% 30.18 in 10.0 mi NNW 8.1 mph - N/A   Clear